www.pogodaiklimat.ru

Погода и климат >> Архив погоды >> Россия >> Якутия >> Тонгулах


ПОГОДА в Тонгулахе

  • Прогноз погоды в Тонгулахе
  • Монитор погоды в Тонгулахе
  • Климат города

АРХИВ ПОГОДЫ в Тонгулахе

Время (UTC), дата Ветер
(напр.,м/с)
 
Видим.   Явления Облачность Т
(С)
Тd
(С)
f
(%)
Тe
(С)
Тes
(С)
Комфортность P
(гПа)
Po
(гПа)
Тmin
(С)
Tmax
(С)
R
(мм)
R24
(мм)
S
(см)
03 20.04 З 3 50 км 10/3 1000 м
[Sc Ci sp]
+2.7 -9.6 40 -1 +4 1013.8 989.1
06 20.04 З 2 50 км 10/5 600 м
[Cu med, cong Ci fib]
+3.3 -9.9 37 +1 +4 1014.2 989.6
09 20.04 З 4 50 км 9/3 600 м
[Cu med, cong Ci fib]
+2.6 -10.1 39 -1 -1 1015.0 990.3
12 20.04 штиль 0 20 км 6/3 600 м
[Cu med, cong Ci fib]
-0.4 -10.9 45 -1 -1 1016.9 992.0 +4.8
15 20.04 штиль 0 20 км 3/0
[Ci fib]
-7.6 -14.3 59 -8 -8 1019.1 993.4
18 20.04 штиль 0 20 км ясно -10.8 -15.1 71 -11 -11 1020.4 994.3
21 20.04 штиль 0 50 км ясно -11.5 -14.3 80 -12 -11 1020.9 994.8
00 21.04 штиль 0 50 км ясно -5.0 -12.9 54 -5 +1 1020.5 995.0 -11.6 38
03 21.04 50 км н/о +2.0 -9.1 44 -0 +2 1019.3 994.4
06 21.04 ЮЗ 2 50 км 10/8 1000 м
[Sc]
+3.2 -9.1 40 +1 +2 1020.0 994.6
09 21.04 З 2 50 км 6/6 600 м
[Sc]
+3.0 -9.4 40 +1 +2 1019.8 995.0
12 21.04 штиль 0 50 км 4/0
[Ci fib]
-2.3 -12.6 45 -3 -3 1020.8 995.6 +3.5
15 21.04 штиль 0 20 км ясно -8.5 -13.3 68 -9 -9 1021.7 995.9
18 21.04 штиль 0 20 км ясно -9.6 -13.7 72 -10 -10 1022.0 996.1
21 21.04 штиль 0 50 км 10/0
[Ac trans Cs]
-10.8 -12.8 85 -11 -11 1021.8 995.7
00 22.04 штиль 0 50 км 10/0
[Cs]
-0.4 -8.3 55 -1 +4 1020.1 995.0 -10.9 37
03 22.04 Ю 1 50 км 6/0
[Ci fib]
+6.3 -6.9 38 +6 +16 опасность
простуды
1017.0 992.6
06 22.04 ЮЗ 1 50 км 10/0
[Cs]
+8.5 -5.7 36 +9 +16 1014.9 990.8
09 22.04 З 1 50 км 10/3 600 м
[Sc Ci fib]
+9.1 -5.2 36 +9 +10 1013.4 989.4
12 22.04 штиль 0 50 км 10/0
[Cs]
+5.5 -5.6 45 +5 +5 1013.6 989.2 +9.5
15 22.04 штиль 0 20 км 10/0
[Cs]
+2.8 -3.4 64 +2 +2 1013.8 989.1
18 22.04 штиль 0 20 км 10/0
[Cs]
+1.0 -3.5 72 0 0 1013.8 989.1
21 22.04 штиль 0 50 км 10/0
[Ac As]
+2.0 -2.3 73 +1 +1 1013.0 988.3
00 23.04 З 1 50 км 10/0
[As op]
+6.0 +0.6 68 +5 +6 1011.6 987.3 +0.9 36
03 23.04 ЮЗ 3 50 км 10/0
[Ac As]
+9.9 +1.8 57 +8 +10 1008.6 984.8
06 23.04 ЮЗ 4 50 км 6/3 1000 м
[Cu hum Ci sp]
+13.1 +1.2 44 +12 +15 1005.6 982.1
09 23.04 ЮЗ 3 50 км 9/3 1000 м
[Sc diur, vesp Ac trans]
+12.2 -0.2 42 +11 +12 1002.2 978.7
12 23.04 Ю 3 50 км 10/0
[Ac As]
+9.3 -0.9 49 +7 +7 999.3 975.6 +13.5
15 23.04 З 3 10 км слабый дождь 10/0
[As op]
+2.9 +1.6 91 -1 -1 1003.2 978.9
18 23.04 З 3 10 км слабый дождь 10/0
[As op]
+1.2 +0.1 92 -3 -3 1004.7 980.2
21 23.04 З 2 50 км {дождь} 3/0
[Ac trans]
-3.0 -8.0 68 -7 -6 1007.8 982.7
00 24.04 З 3 50 км {дождь} 4/4 600 м
[Sc]
-2.0 -8.6 61 -7 -4 1009.5 984.5 -3.3 2 29
03 24.04 З 5 50 км 9/9 600 м
[Cb cap]
-1.5 -12.2 44 -7 -7 1009.8 984.9
06 24.04 З 5 50 км 8/8 600 м
[Sc]
-0.4 -11.7 42 -6 -5 1009.5 984.7
09 24.04 СЗ 3 50 км 9/9 600 м
[Cu med, cong]
-0.5 -11.4 43 -4 -4 1009.5 984.7
12 24.04 СЗ 1 50 км 4/0
[Ac trans]
-3.0 -11.6 51 -5 -5 1010.0 984.9 -0.1
15 24.04 штиль 0 20 км 4/0
[Ac trans]
-8.4 -13.1 69 -9 -9 1010.4 984.8
18 24.04 штиль 0 20 км 3/0
[Ac trans]
-9.7 -13.8 72 -10 -10 1010.5 984.7
21 24.04 штиль 0 50 км 10/0
[As op]
-7.7 -12.7 67 -8 -8 1010.5 984.9
00 25.04 З 3 20 км слабый снег 10/0
[As op]
-6.4 -10.0 76 -12 -11 1010.7 986.3 -9.8 0.3 24
03 25.04 З 3 20 км слабый снег 10/0
[Ac As]
-5.2 -9.7 71 -10 -8 1011.9 986.6
06 25.04 СЗ 1 50 км {ливн. осадки, снег} 10/6 600 м
[Cb cap As trans Ci fib]
-4.4 -10.9 60 -6 -4 1014.0 988.7
09 25.04 С 3 50 км 10/8 600 м
[Cu med, cong]
-5.6 -13.3 55 -11 -10 1016.9 991.5
12 25.04 С 1 50 км 3/0
[Ac trans]
-8.3 -12.5 72 -11 -11 1019.8 994.0 -4.1 1
15 25.04 штиль 0 20 км ясно -13.8 -16.5 80 -14 -14 1021.2 994.8
18 25.04 штиль 0 20 км ясно -14.6 -17.3 80 -15 -15 1021.7 995.3
21 25.04 штиль 0 50 км ясно -16.6 -17.9 90 -17 -16 1022.4 995.7
00 26.04 З 3 50 км ясно -3.7 -12.9 49 -8 -4 1020.4 995.0 -16.8 26
03 26.04 З 3 50 км ясно -0.3 -12.0 41 -4 +4 1018.0 992.9
06 26.04 З 2 50 км ясно +1.9 -11.5 36 -0 +8 1014.8 990.1
09 26.04 ЮЗ 3 50 км 4/0
[Ci fib]
+2.8 -11.4 34 -0 +1 1012.3 987.6
12 26.04 ЮЗ 1 50 км 10/0
[Ci sp]
-1.4 -12.5 43 -3 -3 1010.8 985.9 +3.0
15 26.04 штиль 0 20 км 10/0
[Cs]
-6.5 -12.1 64 -7 -7 1010.0 984.7
18 26.04 штиль 0 20 км 10/0
[Cs]
-7.3 -12.1 68 -8 -8 1009.5 984.0
21 26.04 штиль 0 50 км 10/0
[Ac trans Ci fib]
-6.6 -11.5 68 -7 -7 1008.2 982.8

 

Местоположение метеостанции Тонгулах (Якутия, Россия): широта 61.92 долгота 124.50 высота над уровнем моря 199 м.

В архиве по умолчанию представлена погода в Тонгулахе за последнюю неделю. Архивные данные за месяц целиком и за предыдущие месяцы, начиная с января 2011 года, Вы можете получить, выбрав интересующий диапазон дат из раскрывающегося списка и нажав кнопку "Ввод!".


*Определитесь, кто Вы:
робот инопланетянин человек

Внимание! Время в таблицах - всемирное. Для получения местного времени необходимо прибавить поправку, которая в Тонгулахе равна 9 ч.

Смотрите также архив погоды в соседних городах и на ближайших метеорологических станциях:

Погода в Исите (Якутия, Россия) (130 км)
Погода в Бердигестяхе (Якутия, Россия) (136 км)
Погода в Хатырык-Хомо (Якутия, Россия) (226 км)
Погода в Покровске (Якутия, Россия) (247 км)
Погода в Вилюйске (Якутия, Россия) (253 км)
Погода в Якутске (Якутия, Россия) (267 км)
Погода в Сангаре (Якутия, Россия) (269 км)
Погода в Олекминске (Якутия, Россия) (277 км)
Погода в Верхневилюйске (Якутия, Россия) (278 км)
Погода в Намцах (Якутия, Россия) (278 км)

Пояснения к столбцам:

Ветер - указаны скорость ветра в м/с - средняя за 10 мин, порывы в срок и между сроками (в фигурных скобках) и направление, откуда дует ветер: С - северный, СВ - северо-восточный, В - восточный, ЮВ - юго-восточный, Ю - южный, ЮЗ - юго-западный, З - западный, СЗ - северо-западный.
Видимость - горизонтальная дальность видимости в метрах или километрах. При видимости от 1 до 10 км при отсутствии осадков обычно наблюдается дымка, при ухудшении видимости до 1 км и менее - туман. В сухую погоду видимость может ухудшаться дымом, пылью или мглою.
Явления - указаны атмосферные явления, наблюдавшиеся в срок или в последний час перед сроком; фигурными скобками обозначены явления, наблюдавшиеся между сроками (за 1-3 часа до срока); квадратными скобками обозначены град или гололедные отложения с указанием их диаметра в мм.
Облачность - указаны через наклонную черту общая и нижняя облачность в баллах и высота нижней границы облаков в метрах; квадратными скобками обозначены формы облаков: Ci - перистые, Cs - перисто-слоистые, Cc - перисто-кучевые, Ac - высококучевые, As - высокослоистые, Sc - слоисто-кучевые, Ns - слоисто-дождевые, Cu - кучевые, Cb - кучево-дождевые. Подробнее классификацию облаков см. в Атласе облаков (PDF).
T - Температура воздуха - температура, измеренная на высоте 2 м над землей.
Td - Температура точки росы - температура, при понижении до которой содержащийся в воздухе водяной пар достигнет насыщения.
f - Относительная влажность воздуха - влажноcть воздуха, измеренная на высоте 2 м над землей.
Te - Эффективная температура - температура, которую ощущает одетый по сезону человек в тени. Характеристика душности погоды. При расчете учитывается влияние влажности воздуха и скорости ветра на теплоощущения человека.
Tes - Эффективная температура на солнце - температура, которую ощущает человек, с поправкой на солнечный нагрев. Характеристика знойности погоды. Зависит от высоты солнца над горизонтом, облачности и скорости ветра. Ночью, в пасмурную погоду, а также при ветре 12 м/с и более поправка равна нулю.
P - Атмосферное давление - приведенное к уровню моря атмосферное давление.
Po - Атмосферное давление - измеренное на уровне метеостанции атмосферное давление.
Tmin - Минимальная температура - минимум температуры воздуха на высоте 2 м над землей.
Tmax - Максимальная температура - максимум температуры воздуха на высоте 2 м над землей.
R - Количество осадков - Количество выпавших осадков за период времени, мм. При наведении курсора мыши на число - период времени, за который выпало указанное количество осадков.
R24 - Количество осадков - Количество выпавших осадков за 24 часа, мм.
S - Снежный покров - Высота снежного покрова, см. При наведении курсора мыши на число - состояние снежного покрова и степень покрытия местности в баллах.